Other Public Products
Issued by NWS Charleston, SC

Current Version | Previous Version | Graphics & Text | Print | Product List | Glossary On
Versions: 1 2 3 4 5 6 7 8 9 10 11 12 13 14 15 16 17 18 19 20 21 22 23 24 25 26 27 28 29 30 31 32 33 34 35 36 37 38 39 40 41 42 43 44 45 46 47 48 49 50
000 FPUS82 KCHS 161427 OPUCHS TEST...KCHS/KSAV Gateway Observations...TEST National Weather Service Charleston SC 900 AM EST TUE JAN 16 2018 NOTE: "fair" indicates few or no clouds below 12,000 feet with no significant weather and/or obstructions to visibility. SCZ050-WAZ558-NCZ071-TXZ119-213-PAZ071-DCZ001-FLZ074-172-MI076- NYZ176-178-MAZ016-IL014-TNZ027-NJZ106-GAZ044-MD014-161500- ...Gateway Observations for Charleston International... CITY SKY/WX TMP DP RH WIND PRES REMARKS Chas Airport FAIR 37 24 59 NE6 30.48R WCI 32 Seattle LGT RAIN 48 47 96 SW3 30.10R Charlotte FAIR 31 17 56 SE6 30.44R WCI 25 Dallas DFW CLOUDY 22 4 46 N18 30.76R WCI 7 Dallas Love CLOUDY 21 5 50 N17G24 30.79R WCI 7 Philladelphia PTSUNNY 31 25 78 E6 30.50S WCI 25 Wash National CLOUDY 30 27 88 S3 30.50R Baltimore FRZ DRZL 29 29 100 CALM 30.49S VSB 1/2 Miami FAIR 67 55 65 VRB5 30.30R Detroit LGT SNOW 13 8 81 SW12 30.39R WCI -1 Newark CLOUDY 29 21 72 NE3 30.51S Laguardia CLOUDY 27 22 81 E7 30.51S WCI 19 J F K CLOUDY 29 24 82 E3 30.53S Boston Logan FAIR 25 20 81 CALM 30.53R Ft. Lauderdale PTSUNNY 62 56 80 NW5 30.30R Chicago O`Hare FLURRIES 16 11 80 NW13 30.41R WCI 2 Chicago Midway LGT SNOW 12 8 84 W7 30.42R FOG WCI 1 Houston Bush FRZ DRZL 30 27 88 N28G36 30.60R FOG WCI 15 Houston Hobby FRZ RAIN 31 31 100 N21G29 30.57R WCI 18 Nashville LGT SNOW 15 9 76 N8 30.59R VSB 3/4 WCI 4 Atlanta FAIR 36 26 67 NW6 30.41R WCI 31 $$ GAZ044-118-TXZ119-213-NCZ071-DCZ001-MDZ014-506-PAZ021-071-NJZ106- NYZ176-178-MAZ106-OHZ011-021-055-MIZ076-KYZ091-ILZ014-INZ047- MNZ060-ONZ431-161500- ...Gateway Observations for Savannah International... CITY SKY/WX TMP DP RH WIND PRES REMARKS Savannah Arpt FAIR 37 28 70 N3 30.50R Atlanta FAIR 36 26 67 NW6 30.41R WCI 31 Charlotte FAIR 31 17 56 SE6 30.44R WCI 25 Dallas DFW CLOUDY 22 4 46 N18 30.76R WCI 7 Houston Bush FRZ DRZL 30 27 88 N28G36 30.60R FOG WCI 15 Wash National CLOUDY 30 27 88 S3 30.50R Wash Dulles PTSUNNY 27 26 96 S3 30.47S Baltimore FRZ DRZL 29 29 100 CALM 30.49S VSB 1/2 Philadelphia PTSUNNY 31 25 78 E6 30.50S WCI 25 Newark CLOUDY 29 21 72 NE3 30.51S Laguardia CLOUDY 27 22 81 E7 30.51S WCI 19 J F K CLOUDY 29 24 82 E3 30.53S Boston FAIR 25 20 81 CALM 30.53R Pittsburg LGT SNOW 25 24 96 S3 30.35R FOG Akron FLURRIES 13 7 77 W5 30.36S WCI 5 Cleveland MOCLDY 8 1 73 SW14 30.44R WCI -8 Cincinnati CLOUDY 7 1 76 W10 30.49R WCI -8 Columbus PTSUNNY 8 2 76 W10 30.47S WCI -6 Detroit LGT SNOW 13 8 81 SW12 30.39R WCI -1 Chicago O`Hare FLURRIES 16 11 80 NW13 30.41R WCI 2 Minneapolis FLURRIES 0 -3 87 NW12 30.68S WCI -17 Indianapolis FAIR -3 -8 79 SW13 30.51S WCI -22 Toronto Canada MOCLDY 16 12 86 W6 30.36R WCI 7 $$

USA.gov is the U.S. government's official web portal to all federal, state and local government web resources and services.